VVR701 KNDZ-KNDZ

Flight info

Callsign VVR701
Flight time 0h 41m
Altitude 3000
Route VFR
Aircraft H60/M-VGD/C

Departure

Time 2026-04-15 23:34
Airport Whiting Field Naval Air Station South Airport (KNDZ)

Arrival

Time 2026-04-16 00:15
Airport Whiting Field Naval Air Station South Airport (KNDZ)
Time Latitude Longitude Altitude Speed Heading
2026-04-15 23:26 30.70226 -87.01370 177 ft 0 kts 60°
2026-04-15 23:28 30.70227 -87.01369 177 ft 0 kts 58°
2026-04-15 23:29 30.70231 -87.01364 181 ft 2 kts
2026-04-15 23:29 30.70241 -87.01366 179 ft 1 kts
2026-04-15 23:29 30.70263 -87.01368 181 ft 5 kts 351°
2026-04-15 23:30 30.70306 -87.01379 181 ft 8 kts 351°
2026-04-15 23:30 30.70385 -87.01391 186 ft 13 kts 353°
2026-04-15 23:30 30.70476 -87.01385 189 ft 14 kts 358°
2026-04-15 23:30 30.70580 -87.01387 190 ft 17 kts 354°
2026-04-15 23:31 30.70709 -87.01395 186 ft 16 kts
2026-04-15 23:31 30.70763 -87.01363 183 ft 5 kts 40°
2026-04-15 23:31 30.70796 -87.01328 182 ft 5 kts 56°
2026-04-15 23:31 30.70822 -87.01263 182 ft 12 kts 87°
2026-04-15 23:32 30.70824 -87.01192 193 ft 15 kts 103°
2026-04-15 23:32 30.70773 -87.01002 187 ft 14 kts 108°
2026-04-15 23:32 30.70754 -87.00941 187 ft 9 kts 119°
2026-04-15 23:32 30.70706 -87.00837 187 ft 21 kts 115°
2026-04-15 23:33 30.70642 -87.00654 194 ft 11 kts 105°
2026-04-15 23:33 30.70625 -87.00606 184 ft 7 kts 121°
2026-04-15 23:33 30.70548 -87.00637 215 ft 46 kts 225°
2026-04-15 23:33 30.70002 -87.01162 355 ft 146 kts 226°
2026-04-15 23:34 30.69477 -87.01749 684 ft 162 kts 225°
2026-04-15 23:34 30.68732 -87.02774 1095 ft 165 kts 229°
2026-04-15 23:34 30.67967 -87.03880 971 ft 171 kts 229°
2026-04-15 23:36 30.61510 -87.03702 645 ft 156 kts 158°
2026-04-15 23:36 30.60687 -87.02912 175 ft 152 kts 132°
2026-04-15 23:36 30.59975 -87.01993 115 ft 153 kts 136°
2026-04-15 23:36 30.59071 -87.01491 299 ft 132 kts 161°
2026-04-15 23:37 30.58216 -87.00878 191 ft 161 kts 147°
2026-04-15 23:37 30.57322 -87.00207 102 ft 147 kts 166°
2026-04-15 23:37 30.56353 -87.00345 88 ft 142 kts 205°
2026-04-15 23:37 30.55474 -87.00833 110 ft 140 kts 205°
2026-04-15 23:38 30.54590 -87.01326 132 ft 140 kts 205°
2026-04-15 23:38 30.53815 -87.01979 143 ft 141 kts 223°
2026-04-15 23:38 30.53156 -87.02806 129 ft 141 kts 231°
2026-04-15 23:38 30.52584 -87.03751 122 ft 143 kts 227°
2026-04-15 23:39 30.51706 -87.04264 144 ft 140 kts 204°
2026-04-15 23:39 30.50795 -87.04684 110 ft 151 kts 191°
2026-04-15 23:39 30.49815 -87.04902 147 ft 146 kts 200°
2026-04-15 23:39 30.48872 -87.05269 128 ft 142 kts 193°
2026-04-15 23:40 30.47896 -87.05285 140 ft 140 kts 181°
2026-04-15 23:40 30.46906 -87.05286 139 ft 144 kts 181°
2026-04-15 23:40 30.45929 -87.05286 139 ft 138 kts 181°
2026-04-15 23:40 30.44951 -87.05286 139 ft 142 kts 181°
2026-04-15 23:41 30.43979 -87.05286 137 ft 137 kts 181°
2026-04-15 23:41 30.43014 -87.05288 139 ft 141 kts 181°
2026-04-15 23:41 30.42030 -87.05299 255 ft 139 kts 181°
2026-04-15 23:41 30.41037 -87.05312 233 ft 142 kts 181°
2026-04-15 23:42 30.40048 -87.05320 232 ft 143 kts 181°
2026-04-15 23:42 30.39046 -87.05329 235 ft 144 kts 181°
2026-04-15 23:42 30.38064 -87.05268 205 ft 143 kts 167°
2026-04-15 23:42 30.37330 -87.04482 243 ft 143 kts 125°
2026-04-15 23:43 30.36803 -87.03437 242 ft 150 kts 124°
2026-04-15 23:43 30.36466 -87.02303 237 ft 155 kts 102°
2026-04-15 23:43 30.36291 -87.01095 238 ft 151 kts 102°
2026-04-15 23:43 30.36130 -86.99884 237 ft 152 kts 102°
2026-04-15 23:44 30.36115 -86.98667 229 ft 155 kts 83°
2026-04-15 23:44 30.36291 -86.97445 235 ft 152 kts 84°
2026-04-15 23:44 30.36470 -86.96228 237 ft 154 kts 84°
2026-04-15 23:44 30.36641 -86.95032 237 ft 154 kts 84°
2026-04-15 23:45 30.36827 -86.93817 234 ft 151 kts 86°
2026-04-15 23:45 30.36960 -86.92585 235 ft 154 kts 88°
2026-04-15 23:45 30.37084 -86.91349 231 ft 155 kts 88°
2026-04-15 23:45 30.37192 -86.90113 230 ft 155 kts 88°
2026-04-15 23:46 30.37301 -86.88874 231 ft 156 kts 88°
2026-04-15 23:46 30.37458 -86.87651 229 ft 154 kts 83°
2026-04-15 23:46 30.37741 -86.86426 229 ft 154 kts 76°
2026-04-15 23:46 30.38108 -86.85236 211 ft 156 kts 80°
2026-04-15 23:47 30.38269 -86.83999 215 ft 155 kts 85°
2026-04-15 23:47 30.38412 -86.82764 215 ft 157 kts 87°
2026-04-15 23:47 30.38524 -86.81513 214 ft 156 kts 87°
2026-04-15 23:47 30.38634 -86.80264 215 ft 156 kts 87°
2026-04-15 23:48 30.38737 -86.79023 212 ft 153 kts 87°
2026-04-15 23:48 30.38846 -86.77781 213 ft 157 kts 87°
2026-04-15 23:48 30.38962 -86.76530 214 ft 155 kts 87°
2026-04-15 23:48 30.39086 -86.75290 213 ft 155 kts 87°
2026-04-15 23:49 30.39202 -86.74050 219 ft 155 kts 87°
2026-04-15 23:49 30.39309 -86.72813 214 ft 153 kts 87°
2026-04-15 23:49 30.39414 -86.71575 215 ft 153 kts 87°
2026-04-15 23:49 30.39522 -86.70328 215 ft 157 kts 87°
2026-04-15 23:50 30.39632 -86.69077 217 ft 154 kts 87°
2026-04-15 23:50 30.39739 -86.67826 213 ft 154 kts 87°
2026-04-15 23:50 30.39842 -86.66575 213 ft 157 kts 87°
2026-04-15 23:51 30.40075 -86.64089 213 ft 157 kts 87°
2026-04-15 23:51 30.40191 -86.62850 213 ft 156 kts 87°
2026-04-15 23:51 30.40306 -86.61615 214 ft 154 kts 87°
2026-04-15 23:51 30.40411 -86.60382 215 ft 154 kts 87°
2026-04-15 23:52 30.40482 -86.59132 215 ft 158 kts 90°
2026-04-15 23:52 30.40547 -86.57863 211 ft 161 kts 90°
2026-04-15 23:52 30.40606 -86.56597 892 ft 155 kts 90°
2026-04-15 23:52 30.40690 -86.55373 1419 ft 154 kts 90°
2026-04-15 23:53 30.40775 -86.54138 1425 ft 155 kts 90°
2026-04-15 23:53 30.40684 -86.52919 1438 ft 150 kts 109°
2026-04-15 23:53 30.40425 -86.51754 1434 ft 149 kts 115°
2026-04-15 23:53 30.40024 -86.50645 1431 ft 149 kts 117°
2026-04-15 23:54 30.39726 -86.49512 1431 ft 149 kts 108°
2026-04-15 23:54 30.39656 -86.48316 1383 ft 146 kts 90°
2026-04-15 23:54 30.39843 -86.47263 1450 ft 125 kts 80°
2026-04-15 23:54 30.40188 -86.46389 1513 ft 112 kts 66°
2026-04-15 23:55 30.40619 -86.45776 943 ft 92 kts 33°
2026-04-15 23:55 30.41317 -86.45730 434 ft 111 kts 344°
2026-04-15 23:55 30.42014 -86.46205 246 ft 123 kts 322°
2026-04-15 23:55 30.42583 -86.46891 538 ft 111 kts 305°
2026-04-15 23:56 30.42824 -86.47635 622 ft 89 kts 259°
2026-04-15 23:56 30.42532 -86.48256 565 ft 79 kts 234°
2026-04-15 23:56 30.42069 -86.48298 435 ft 89 kts 198°
2026-04-15 23:56 30.41434 -86.48317 401 ft 92 kts 171°
2026-04-15 23:57 30.40922 -86.47966 216 ft 72 kts 149°
2026-04-15 23:57 30.40632 -86.47724 117 ft 30 kts 144°
2026-04-15 23:57 30.40548 -86.47651 45 ft 3 kts 141°
2026-04-15 23:57 30.40324 -86.47431 331 ft 100 kts 144°
2026-04-15 23:58 30.39653 -86.46777 884 ft 145 kts 149°
2026-04-15 23:58 30.38672 -86.46622 879 ft 163 kts 201°
2026-04-15 23:58 30.38331 -86.47730 759 ft 161 kts 278°
2026-04-15 23:58 30.38515 -86.48989 740 ft 158 kts 277°
2026-04-15 23:59 30.38685 -86.50253 735 ft 159 kts 275°
2026-04-15 23:59 30.38857 -86.51497 734 ft 155 kts 275°
2026-04-15 23:59 30.38973 -86.52765 721 ft 166 kts 266°
2026-04-15 23:59 30.38889 -86.54025 730 ft 155 kts 263°
2026-04-16 00:00 30.38795 -86.55269 735 ft 154 kts 263°
2026-04-16 00:00 30.38703 -86.56507 738 ft 152 kts 263°
2026-04-16 00:00 30.38604 -86.57751 737 ft 158 kts 263°
2026-04-16 00:00 30.38493 -86.59003 725 ft 159 kts 263°
2026-04-16 00:01 30.38399 -86.60262 722 ft 162 kts 263°
2026-04-16 00:01 30.38300 -86.61545 726 ft 160 kts 263°
2026-04-16 00:01 30.38208 -86.62804 729 ft 158 kts 263°
2026-04-16 00:01 30.38195 -86.64047 731 ft 157 kts 270°
2026-04-16 00:02 30.38232 -86.65306 728 ft 157 kts 270°
2026-04-16 00:02 30.38262 -86.66575 730 ft 156 kts 270°
2026-04-16 00:02 30.38339 -86.67825 732 ft 154 kts 270°
2026-04-16 00:02 30.38419 -86.69077 730 ft 157 kts 270°
2026-04-16 00:03 30.38485 -86.70342 730 ft 159 kts 270°
2026-04-16 00:03 30.38539 -86.71627 727 ft 157 kts 270°
2026-04-16 00:03 30.38604 -86.72898 730 ft 160 kts 270°
2026-04-16 00:03 30.38657 -86.74172 727 ft 159 kts 270°
2026-04-16 00:04 30.38693 -86.75466 732 ft 160 kts 270°
2026-04-16 00:04 30.38729 -86.76743 726 ft 158 kts 270°
2026-04-16 00:04 30.38782 -86.78040 731 ft 163 kts 270°
2026-04-16 00:04 30.38824 -86.79327 728 ft 157 kts 270°
2026-04-16 00:05 30.38989 -86.80579 697 ft 164 kts 292°
2026-04-16 00:05 30.39648 -86.81673 722 ft 169 kts 306°
2026-04-16 00:05 30.40355 -86.82738 729 ft 166 kts 306°
2026-04-16 00:05 30.41046 -86.83808 732 ft 166 kts 306°
2026-04-16 00:06 30.41735 -86.84892 739 ft 167 kts 306°
2026-04-16 00:06 30.42445 -86.85946 734 ft 165 kts 306°
2026-04-16 00:06 30.43158 -86.86984 737 ft 161 kts 304°
2026-04-16 00:06 30.43791 -86.88095 732 ft 173 kts 296°
2026-04-16 00:07 30.44250 -86.89350 743 ft 160 kts 288°
2026-04-16 00:07 30.44675 -86.90568 740 ft 163 kts 288°
2026-04-16 00:07 30.45089 -86.91794 741 ft 167 kts 288°
2026-04-16 00:07 30.45495 -86.93049 741 ft 166 kts 288°
2026-04-16 00:08 30.45893 -86.94297 739 ft 165 kts 288°
2026-04-16 00:08 30.46286 -86.95554 740 ft 165 kts 288°
2026-04-16 00:08 30.46684 -86.96767 737 ft 165 kts 288°
2026-04-16 00:08 30.47085 -86.98022 737 ft 167 kts 288°
2026-04-16 00:09 30.47472 -86.99302 738 ft 165 kts 288°
2026-04-16 00:09 30.47838 -87.00563 740 ft 163 kts 290°
2026-04-16 00:09 30.48523 -87.01563 765 ft 159 kts 319°
2026-04-16 00:09 30.49404 -87.02405 748 ft 164 kts 320°
2026-04-16 00:10 30.50439 -87.03107 714 ft 184 kts 344°
2026-04-16 00:10 30.51688 -87.03174 750 ft 164 kts
2026-04-16 00:10 30.52869 -87.03165 740 ft 167 kts
2026-04-16 00:10 30.53875 -87.02536 763 ft 169 kts 42°
2026-04-16 00:11 30.54778 -87.01688 745 ft 165 kts 41°
2026-04-16 00:11 30.55759 -87.00979 743 ft 169 kts 32°
2026-04-16 00:11 30.56866 -87.00746 575 ft 181 kts 345°
2026-04-16 00:11 30.57963 -87.01207 387 ft 170 kts 339°
2026-04-16 00:12 30.59069 -87.01686 374 ft 168 kts 339°
2026-04-16 00:12 30.60097 -87.02332 374 ft 161 kts 329°
2026-04-16 00:12 30.61101 -87.02928 378 ft 163 kts 335°
2026-04-16 00:12 30.62091 -87.03318 373 ft 155 kts 347°
2026-04-16 00:13 30.63208 -87.03555 373 ft 164 kts 349°
2026-04-16 00:13 30.64328 -87.03784 411 ft 166 kts 349°
2026-04-16 00:13 30.65416 -87.04017 578 ft 166 kts 349°
2026-04-16 00:13 30.66538 -87.04252 602 ft 164 kts 349°
2026-04-16 00:14 30.67665 -87.04493 603 ft 169 kts 353°
2026-04-16 00:14 30.68810 -87.04564 598 ft 162 kts 358°
2026-04-16 00:14 30.69892 -87.04606 623 ft 151 kts 359°
2026-04-16 00:14 30.70925 -87.04533 618 ft 144 kts 12°
2026-04-16 00:15 30.71719 -87.04035 612 ft 119 kts 39°
2026-04-16 00:15 30.72325 -87.03429 617 ft 113 kts 51°
2026-04-16 00:15 30.72709 -87.02720 601 ft 85 kts 95°
2026-04-16 00:15 30.72591 -87.02329 394 ft 29 kts 185°
2026-04-16 00:16 30.72271 -87.02357 263 ft 56 kts 172°
2026-04-16 00:16 30.71976 -87.02225 263 ft 29 kts 173°
2026-04-16 00:16 30.71922 -87.02233 211 ft 2 kts 170°
2026-04-16 00:16 30.71921 -87.02240 208 ft 3 kts 166°
2026-04-16 00:17 30.71914 -87.02247 200 ft 0 kts 163°
2026-04-16 00:17 30.71913 -87.02250 190 ft 0 kts 163°